Retour au catalogue

STARLINK-3451

ActifCommunicationsVLEO
NORAD 51749·PAYLOAD·🇺🇸 United States

Lancé Feb 21, 2022 depuis Cape Canaveral Space Force Station

Loading…

Prochains Passages (prochaines 24 heures)

TLE

FraisSource: CelesTrak SupGP

Époque: Sep 15, 2026, 02:09 UTC

1 51749C 22016AM  26258.09006944 -.00019002  00000+0 -61114-3 0  2589
2 51749  53.1568 175.9921 0001392  90.7336  29.6405 15.31707356    18

Suivez STARLINK-3451 en temps réel avec AllMySat

Download on the App Store